KZR618 UACC-UASS

Flight info

Callsign KZR618
Flight time N/A
Altitude 31000
Route BOLSU2B BOLSU DCT ETORI ETORI1G
Aircraft B463/M-SDFGIRWY/LB1

Departure

Time 2026-04-25 09:09
Airport Nursultan Nazarbayev International Airport (UACC)

Arrival

Time N/A
Airport Semei International Airport (UASS)
Time Latitude Longitude Altitude Speed Heading
2026-04-25 08:32 51.02464 71.46183 1163 ft 0 kts 134°
2026-04-25 08:33 51.02464 71.46182 1163 ft 0 kts 134°
2026-04-25 08:43 51.02464 71.46181 1163 ft 0 kts 134°
2026-04-25 08:48 51.02465 71.46181 1163 ft 0 kts 134°
2026-04-25 08:53 51.02465 71.46180 1163 ft 0 kts 134°
2026-04-25 09:00 51.02452 71.46164 1161 ft 7 kts 232°
2026-04-25 09:00 51.02420 71.46144 1163 ft 4 kts 173°
2026-04-25 09:00 51.02398 71.46160 1163 ft 3 kts 136°
2026-04-25 09:01 51.02382 71.46187 1163 ft 5 kts 131°
2026-04-25 09:01 51.02350 71.46248 1163 ft 8 kts 103°
2026-04-25 09:01 51.02380 71.46350 1164 ft 13 kts 43°
2026-04-25 09:01 51.02459 71.46469 1163 ft 18 kts 44°
2026-04-25 09:02 51.02554 71.46622 1164 ft 21 kts 46°
2026-04-25 09:02 51.02654 71.46779 1164 ft 18 kts 45°
2026-04-25 09:02 51.02730 71.46900 1164 ft 15 kts 44°
2026-04-25 09:02 51.02802 71.47010 1163 ft 14 kts 44°
2026-04-25 09:03 51.02846 71.47079 1163 ft 13 kts 44°
2026-04-25 09:03 51.02910 71.47176 1163 ft 12 kts 43°
2026-04-25 09:03 51.02966 71.47267 1164 ft 11 kts 46°
2026-04-25 09:03 51.03019 71.47350 1164 ft 10 kts 46°
2026-04-25 09:04 51.03082 71.47450 1164 ft 9 kts 43°
2026-04-25 09:04 51.03112 71.47495 1164 ft 8 kts 43°
2026-04-25 09:04 51.03152 71.47557 1164 ft 8 kts 45°
2026-04-25 09:04 51.03191 71.47615 1164 ft 9 kts 41°
2026-04-25 09:05 51.03243 71.47692 1164 ft 12 kts 47°
2026-04-25 09:05 51.03310 71.47800 1163 ft 16 kts 44°
2026-04-25 09:05 51.03388 71.47921 1163 ft 15 kts 45°
2026-04-25 09:05 51.03428 71.48058 1163 ft 14 kts 88°
2026-04-25 09:06 51.03431 71.48205 1163 ft 13 kts 89°
2026-04-25 09:06 51.03399 71.48317 1165 ft 8 kts 134°
2026-04-25 09:06 51.03369 71.48344 1164 ft 3 kts 186°
2026-04-25 09:06 51.03354 71.48335 1164 ft 2 kts 212°
2026-04-25 09:07 51.03344 71.48322 1163 ft 0 kts 225°
2026-04-25 09:08 51.03341 71.48317 1164 ft 6 kts 225°
2026-04-25 09:08 51.03171 71.48042 1164 ft 67 kts 229°
2026-04-25 09:08 51.02679 71.47281 1167 ft 127 kts 224°
2026-04-25 09:08 51.02040 71.46283 1699 ft 134 kts 226°
2026-04-25 09:09 51.01338 71.45160 2250 ft 146 kts 223°
2026-04-25 09:09 51.00672 71.44124 3155 ft 126 kts 224°
2026-04-25 09:09 51.00029 71.43128 3697 ft 135 kts 223°
2026-04-25 09:09 50.99333 71.42032 4208 ft 142 kts 223°
2026-04-25 09:10 50.98648 71.40956 4903 ft 139 kts 224°
2026-04-25 09:10 50.97976 71.39859 5515 ft 138 kts 225°
2026-04-25 09:10 50.97305 71.38766 6072 ft 141 kts 224°
2026-04-25 09:10 50.96562 71.37591 6501 ft 161 kts 224°
2026-04-25 09:11 50.94994 71.35213 7155 ft 151 kts 218°
2026-04-25 09:11 50.94056 71.34564 7377 ft 154 kts 178°
2026-04-25 09:11 50.93083 71.35499 7447 ft 179 kts 138°
2026-04-25 09:12 50.92422 71.37104 8069 ft 162 kts 126°
2026-04-25 09:12 50.91864 71.38809 8462 ft 185 kts 127°
2026-04-25 09:12 50.91144 71.40382 9298 ft 166 kts 158°
2026-04-25 09:12 50.90063 71.41000 9856 ft 169 kts 169°
2026-04-25 09:13 50.88926 71.41626 10180 ft 170 kts 167°
2026-04-25 09:13 50.87875 71.42154 10939 ft 152 kts 172°
2026-04-25 09:13 50.86859 71.42708 11299 ft 162 kts 165°
2026-04-25 09:13 50.85817 71.43599 11538 ft 180 kts 156°
2026-04-25 09:14 50.84756 71.44765 11893 ft 186 kts 149°
2026-04-25 09:14 50.83765 71.46049 12434 ft 182 kts 144°
2026-04-25 09:14 50.82995 71.47581 13035 ft 184 kts 124°
2026-04-25 09:14 50.82583 71.49725 13020 ft 225 kts 97°
2026-04-25 09:15 50.82852 71.52093 13932 ft 211 kts 62°
2026-04-25 09:15 50.83582 71.54018 14685 ft 204 kts 57°